User: anonymous   Login
Location: Gugi
(45.4667°N, 11.1000°E)
Time: 08:04:00
(UTC+00:00)
Language:

Lacrosse 4 Rocket - Orbit

View from above orbital plane
View from above orbital plane
View from above satellite
View from above satellite

Ground track
Ground track

The orbit data is extracted from the following two-line orbital elements,

1 26474U 00047B   20025.56632923 +.00000012 +00000-0 +12070-4 0  9996
2 26474 067.9941 111.7432 0056619 350.6395 009.3686 14.95905328057727
Epoch (UTC): 25 January 2020 13:35:30
Eccentricity: 0.0056619
inclination: 67.9941°
perigee height: 540 km
apogee height: 619 km
right ascension of ascending node: 111.7432°
argument of perigee: 350.6395°
revolutions per day: 14.95905328
mean anomaly at epoch: 9.3686°
orbit number at epoch: 5772

The dashed part of the orbit path shows where the satellite is in the earth's shadow,  

DLR